[[{"header":{"parameterUnit":"m.s-1","parameterCategory":1,"la1":30.2991,"la2":30.254,"lo1":-89.0895,"lo2":-89.0444,"dy":0.0017,"dx":0.0017,"nx":28,"ny":28,"refTime":"2023-08-10T09:00:00:Z","depth":0,"parameterNumber":2,"parameterNumberName":"U-component_of_WINDS"},"data":[0,0,0,0,0,0,0,0,0,0,0,0,0,0,0,0,0,0,0,0,0,0,0,0,0,0,0,0,0,0,0,0,0,0,0,0,0,0,0,0,0,0,0,0,0,0,0,0,0,0,0,0,0,0,0,0,0,0,0.6498,0.65,0,0.6627,0.6628,0.663,0.6647,0.6646,0.6645,0.6643,0.6777,0.6782,0.6787,0,0,0,0,0,0,0,0,0,0,0,0,0,0.6271,0.6275,0.6498,0.65,0.6501,0.6626,0.6628,0.663,0.6647,0.6646,0.6644,0.6643,0.6776,0.6781,0.6787,0,0,0,0,0,0,0,0,0,0,0,0,0,0.6381,0.6276,0.6498,0.6525,0.6529,0.6626,0.6628,0.663,0.6648,0.6646,0.6644,0.6642,0.6774,0.6781,0.6788,0.6868,0,0,0.6809,0.6813,0,0,0,0,0,0,0,0,0.6375,0.639,0.6519,0.6523,0.6528,0.6619,0.6597,0.671,0.6648,0.6603,0.6643,0.6641,0.6726,0.6737,0.6765,0.6874,0.688,0.681,0.6814,0.6817,0.6819,0,0,0,0,0,0,0,0.6367,0.6384,0.6549,0.6521,0.6526,0.6532,0.6545,0.6619,0.6673,0.6606,0.6608,0.6623,0.6728,0.6759,0.6769,0.6882,0.681,0.6816,0.6821,0.6823,0.7065,0.7067,0,0,0,0,0,0,0.6354,0.6378,0.6545,0.6553,0.6445,0.6537,0.6553,0.6592,0.6672,0.6683,0.6624,0.6623,0.6747,0.676,0.6773,0.6874,0.6817,0.6824,0.6828,0.7063,0.7065,0.7068,0,0,0,0,0,0,0.6349,0.6369,0.654,0.6466,0.6488,0.6543,0.6587,0.6595,0.6625,0.6686,0.6696,0.6645,0.6747,0.6764,0.6845,0.6878,0.6827,0.6834,0.706,0.7063,0.7066,0.7073,0,0,0,0,0,0,0.6343,0.6367,0.6397,0.6466,0.6492,0.6608,0.6589,0.6599,0.6637,0.6637,0.6708,0.6718,0.6746,0.6834,0.6852,0.6887,0.6839,0.7057,0.7061,0.7065,0.707,0.7076,0.7082,0,0,0,0,0,0.6335,0.6394,0.6399,0.6419,0.6531,0.661,0.6624,0.6655,0.664,0.6671,0.671,0.6716,0.6872,0.6842,0.6862,0.69,0.7055,0.706,0.7065,0.7068,0.7075,0.7082,0,0,0,0,0,0,0.6328,0.6404,0.641,0.6493,0.6545,0.6612,0.6653,0.6662,0.6719,0.6717,0.6753,0.6769,0.6849,0.6883,0.6848,0.6983,0.6962,0.6971,0.6958,0.6965,0.6971,0.6961,0.6845,0,0,0,0,0,0.6336,0.6393,0.6457,0.6525,0.655,0.6597,0.6632,0.6652,0.6707,0.6729,0.6774,0.6828,0.689,0.6929,0.6989,0.7075,0.7092,0.7112,0.7117,0.7122,0.7129,0.7179,0.7189,0.7084,0.7084,0.7083,0,0,0.6354,0.6403,0.6436,0.6525,0.6567,0.6626,0.6615,0.6678,0.6723,0.6739,0.6818,0.6853,0.6916,0.7,0.704,0.7031,0.7162,0.7128,0.7131,0.7136,0.7185,0.7195,0.7204,0.7087,0.7086,0.7086,0,0,0.6417,0.6459,0.652,0.6563,0.6627,0.6658,0.6673,0.674,0.6763,0.6843,0.6857,0.6911,0.7016,0.7061,0.7097,0.7178,0.7186,0.7197,0.7226,0.7274,0.7283,0.729,0.732,0.733,0.7204,0.7204,0.7204,0,0.6431,0.652,0.6551,0.6614,0.6653,0.667,0.6733,0.6773,0.6854,0.6881,0.687,0.7003,0.7046,0.7142,0.7162,0.719,0.7209,0.7189,0.7279,0.7287,0.7294,0.7323,0.7334,0.7205,0.7205,0.7205,0.7205,0,0.6534,0.6596,0.6638,0.6715,0.6759,0.6822,0.6864,0.6905,0.6921,0.6953,0.7035,0.7088,0.716,0.7184,0.72,0.7282,0.7275,0.7271,0.7251,0.7305,0.7333,0.7344,0.7206,0.7206,0.7206,0.7205,0,0,0.6595,0.669,0.6705,0.6741,0.6813,0.6862,0.6927,0.6996,0.7031,0.7086,0.7142,0.7231,0.7228,0.7269,0.7291,0.7333,0.7395,0.7324,0.7326,0.7336,0.7491,0.7494,0.7506,0.7401,0.7403,0.7405,0.7486,0,0.6667,0.6781,0.6812,0.6909,0.6968,0.6985,0.7042,0.7093,0.7126,0.7181,0.7217,0.728,0.727,0.7296,0.7338,0.7378,0.7427,0.7373,0.7454,0.7456,0.7438,0.7521,0.7524,0.7598,0.7497,0.7499,0.75,0,0.6765,0.6822,0.6926,0.6992,0.7018,0.7068,0.7135,0.7187,0.7246,0.7267,0.7314,0.7332,0.7401,0.7377,0.7474,0.7436,0.7472,0.7497,0.75,0.7509,0.7482,0.7533,0.7622,0.7633,0.7517,0.7516,0.7515,0,0.68,0.6903,0.6979,0.7009,0.7088,0.7123,0.7158,0.7215,0.7256,0.7315,0.7341,0.7408,0.7444,0.7495,0.7531,0.7511,0.7626,0.7604,0.7646,0.7645,0.7669,0.7667,0.7766,0.7691,0.7691,0.769,0.769,0,0.6877,0.6939,0.6996,0.7042,0.7114,0.7149,0.7219,0.7255,0.7306,0.7361,0.738,0.7431,0.7475,0.7533,0.7562,0.7638,0.7654,0.7674,0.7681,0.7672,0.767,0.7696,0.7692,0.7694,0.7693,0.7692,0.7692,0,0.6928,0.6968,0.7051,0.712,0.7139,0.7189,0.7248,0.7295,0.7328,0.7397,0.7416,0.7469,0.7537,0.7578,0.7665,0.7685,0.777,0.7774,0.7749,0.7753,0.7792,0.7788,0.7912,0.793,0.7842,0.7842,0.7843,0,0.6974,0.7023,0.7097,0.7135,0.717,0.7231,0.7272,0.731,0.7352,0.7424,0.7463,0.7533,0.759,0.77,0.7747,0.7814,0.7821,0.7859,0.7831,0.7821,0.7822,0.7819,0.7825,0.7864,0.7865,0.7866,0.7866,0,0.7052,0.707,0.7129,0.7195,0.7244,0.7298,0.7352,0.7382,0.7429,0.7476,0.7546,0.7591,0.768,0.775,0.7821,0.7859,0.7871,0.7875,0.7888,0.788,0.7864,0.7875,0.7763,0.7872,0.7871,0.7871,0.787,0.787,0.7103,0.7148,0.7207,0.7273,0.7317,0.7367,0.7415,0.7455,0.7514,0.7589,0.7608,0.7683,0.7743,0.784,0.7879,0.7938,0.7932,0.7951,0.7956,0.796,0.7962,0.7854,0.7951,0.7951,0.7951,0.7951,0.7951,0,0.7183,0.7223,0.7282,0.7357,0.7409,0.7416,0.7476,0.7519,0.7584,0.7639,0.7696,0.7778,0.7846,0.7899,0.7969,0.8007,0.8014,0.8024,0.8022,0.8031,0.7963,0.7945,0.8017,0.8017,0.8017,0.8017,0.8017,0.8017,0.723,0.7307,0.7332,0.7432,0.7472,0.7544,0.7579,0.7626,0.767,0.776,0.7817,0.7851,0.7906,0.798,0.8044,0.8057,0.8083,0.8092,0.8107,0.8042,0.8035,0.8028,0.8012,0.8097,0.8097,0.817,0.8171,0.8171]},{"header":{"parameterUnit":"m.s-1","parameterCategory":1,"la1":30.2991,"la2":30.254,"lo1":-89.0895,"lo2":-89.0444,"dy":0.0017,"dx":0.0017,"nx":28,"ny":28,"refTime":"2023-08-10T09:00:00:Z","depth":0,"parameterNumber":3,"parameterNumberName":"V-component_of_WINDS"},"data":[0,0,0,0,0,0,0,0,0,0,0,0,0,0,0,0,0,0,0,0,0,0,0,0,0,0,0,0,0,0,0,0,0,0,0,0,0,0,0,0,0,0,0,0,0,0,0,0,0,0,0,0,0,0,0,0,0,0,6.0083,6.0084,0,6.0184,6.0185,6.0186,6.0152,6.0149,6.0147,6.0145,6.0237,6.0241,6.0246,0,0,0,0,0,0,0,0,0,0,0,0,0,5.9848,5.9852,6.0082,6.0084,6.0085,6.0184,6.0185,6.0186,6.0152,6.0149,6.0147,6.0144,6.0236,6.0241,6.0246,0,0,0,0,0,0,0,0,0,0,0,0,0,5.9949,5.9854,6.0082,6.008,6.0081,6.0184,6.0185,6.0187,6.0153,6.0149,6.0146,6.0143,6.0234,6.024,6.0247,6.0354,0,0,6.0268,6.0271,0,0,0,0,0,0,0,0,5.9944,5.9958,6.0079,6.008,6.0082,6.0152,6.0136,6.0243,6.0153,6.0125,6.0145,6.0141,6.0211,6.0219,6.0245,6.0359,6.0362,6.0268,6.0272,6.0275,6.0277,0,0,0,0,0,0,0,5.9937,5.9953,6.0122,6.0081,6.0082,6.007,6.0081,6.0156,6.0184,6.0127,6.0125,6.0138,6.0211,6.0239,6.0247,6.0364,6.0268,6.0274,6.0278,6.0281,6.0571,6.0575,0,0,0,0,0,0,5.9931,5.9948,6.0119,6.0125,6.0004,6.0077,6.0089,6.0132,6.0184,6.0189,6.0141,6.0136,6.0229,6.0239,6.025,6.038,6.0275,6.0281,6.0285,6.0568,6.0572,6.0576,0,0,0,0,0,0,5.9926,5.9946,6.0115,6.0036,6.0057,6.0085,6.0134,6.0136,6.0164,6.0194,6.0198,6.0165,6.0227,6.024,6.033,6.0382,6.0284,6.0291,6.0563,6.0569,6.0574,6.064,0,0,0,0,0,0,5.9919,5.9945,5.9988,6.0038,6.0061,6.0196,6.0137,6.0141,6.0177,6.0172,6.0218,6.0222,6.0225,6.032,6.0336,6.039,6.0296,6.0559,6.0566,6.0572,6.0633,6.0647,6.0659,0,0,0,0,0,5.9911,5.9999,5.999,6.0011,6.0117,6.0199,6.0212,6.0218,6.0182,6.0224,6.0244,6.0221,6.0374,6.0329,6.0348,6.0404,6.0555,6.0564,6.0572,6.0627,6.0644,6.0658,0,0,0,0,0,0,5.995,6.0006,5.9996,6.0104,6.0148,6.0194,6.0247,6.0235,6.0286,6.0279,6.0279,6.029,6.0382,6.0401,6.035,6.0511,6.0459,6.0471,6.0495,6.0511,6.0524,6.0517,6.0301,0,0,0,0,0,5.9973,6.0039,6.0082,6.0173,6.0196,6.0218,6.0254,6.0255,6.0298,6.0315,6.0341,6.0381,6.0438,6.0476,6.053,6.0636,6.0645,6.0684,6.0696,6.0707,6.0717,6.0775,6.0793,6.0603,6.0603,6.0603,0,0,6.0017,6.0056,6.0096,6.0182,6.0216,6.0282,6.0233,6.0304,6.0352,6.0324,6.0412,6.0433,6.0477,6.0576,6.062,6.0594,6.0772,6.0717,6.0726,6.073,6.0786,6.0804,6.082,6.0609,6.0608,6.0607,0,0,6.0132,6.0169,6.025,6.0286,6.034,6.0354,6.0374,6.0422,6.0436,6.0525,6.0506,6.0561,6.066,6.0693,6.0722,6.0853,6.0834,6.087,6.0937,6.0994,6.1009,6.1022,6.1069,6.1086,6.0881,6.0881,6.0881,0,6.0179,6.0282,6.0291,6.0366,6.0403,6.0386,6.0467,6.05,6.0567,6.0592,6.0563,6.0689,6.0717,6.0824,6.0856,6.0881,6.0901,6.0865,6.1007,6.102,6.1033,6.1077,6.1095,6.0885,6.0885,6.0884,6.0884,0,6.0338,6.0409,6.0467,6.0539,6.0582,6.0659,6.0677,6.072,6.0717,6.0734,6.0824,6.0858,6.092,6.0945,6.0941,6.1051,6.1034,6.1007,6.0954,6.1055,6.1097,6.1114,6.0891,6.089,6.0888,6.0887,0,0,6.0478,6.0557,6.0578,6.0611,6.0671,6.0724,6.0799,6.0864,6.0901,6.0948,6.101,6.1095,6.1071,6.1105,6.1104,6.1154,6.1257,6.112,6.1121,6.1145,6.1381,6.1401,6.1421,6.1245,6.1248,6.125,6.1377,0,6.0599,6.0737,6.0748,6.0871,6.0936,6.0922,6.0987,6.1029,6.1047,6.1103,6.112,6.1182,6.1145,6.1165,6.1214,6.1234,6.1304,6.1225,6.13,6.1302,6.129,6.1443,6.1465,6.1582,6.1393,6.1396,6.1398,0,6.0757,6.0816,6.0946,6.0999,6.1027,6.1086,6.1148,6.1202,6.1248,6.1258,6.1298,6.1291,6.1365,6.1312,6.1414,6.136,6.1391,6.1405,6.141,6.1417,6.1356,6.1454,6.162,6.1638,6.1424,6.1422,6.142,0,6.0848,6.0958,6.1051,6.1079,6.1143,6.1185,6.1212,6.1256,6.1296,6.1348,6.1373,6.1431,6.1463,6.1507,6.1516,6.1476,6.1618,6.1564,6.1626,6.1626,6.1656,6.1654,6.1829,6.1676,6.1676,6.1676,6.1675,0,6.0981,6.1061,6.1093,6.115,6.1239,6.125,6.1337,6.1361,6.1401,6.146,6.145,6.1504,6.1513,6.1569,6.1575,6.1659,6.1673,6.1681,6.1682,6.1682,6.1681,6.1702,6.1694,6.168,6.1679,6.1678,6.1678,0,6.1096,6.1121,6.1221,6.1276,6.1291,6.1354,6.1399,6.1452,6.147,6.1545,6.1563,6.159,6.1656,6.167,6.1745,6.175,6.185,6.1842,6.1836,6.1835,6.1896,6.189,6.2091,6.2118,6.1947,6.1949,6.195,0,6.1179,6.1242,6.1305,6.1347,6.1378,6.1444,6.1486,6.1498,6.1541,6.1601,6.1647,6.1713,6.1766,6.1871,6.1895,6.1954,6.1947,6.2014,6.1956,6.1955,6.1949,6.1945,6.1951,6.2025,6.2026,6.2028,6.2029,0,6.1325,6.1335,6.1398,6.1466,6.1517,6.157,6.1619,6.1653,6.1672,6.172,6.1791,6.1833,6.1914,6.1978,6.2038,6.2062,6.2049,6.2048,6.2065,6.2066,6.206,6.2065,6.1866,6.2043,6.2041,6.204,6.204,6.2039,6.1427,6.1483,6.1537,6.1607,6.1648,6.1695,6.1749,6.1776,6.1837,6.1907,6.191,6.1986,6.2031,6.2111,6.2139,6.2197,6.2175,6.22,6.2207,6.2213,6.2219,6.2052,6.2207,6.2207,6.2206,6.2206,6.2206,0,6.1572,6.1608,6.1673,6.1746,6.1801,6.1789,6.1844,6.189,6.1959,6.2005,6.2059,6.214,6.2204,6.2234,6.2297,6.2337,6.2332,6.2353,6.235,6.2356,6.2234,6.2213,6.2356,6.2356,6.2356,6.2356,6.2356,6.2356,6.1654,6.1749,6.1766,6.1879,6.1913,6.1992,6.2024,6.2068,6.2105,6.2197,6.2252,6.2274,6.2313,6.2378,6.2436,6.2443,6.2466,6.2489,6.2493,6.2379,6.2364,6.2349,6.233,6.2494,6.2495,6.261,6.2611,6.2612]}]]